Lubbock, TX

6:47 PM CDT on October 14, 2019 (GMT -0500)
Lubbock International

Weather History for KLBB - September, 2019

Change the Weather History Date:

Saturday, September 21, 2019

  Actual Average Record
Temperature  
Mean Temperature 70 °F 70 °F  
Max Temperature 75 °F 83 °F 98 °F (1998)
Min Temperature 64 °F 57 °F 33 °F (1983)
Degree Days  
Heating Degree Days 0 1  
Month to date heating degree days 0 8  
Since 1 July heating degree days 0 8  
Cooling Degree Days 4 6  
Month to date cooling degree days 273 180  
Year to date cooling degree days 1991 1706  
Growing Degree Days 20 (Base 50)    
Moisture  
Dew Point 66 °F    
Average Humidity 92    
Maximum Humidity 100    
Minimum Humidity 73    
Precipitation  
Precipitation 2.19 in 0.08 in 5.50 in (1936)
Month to date precipitation 4.60 1.80  
Year to date precipitation 20.19 14.87  
Snow  
Snow 0.00 in 0.00 in 0.00 in (2002)
Month to date snowfall 0.0 0.0  
Since 1 July snowfall 0.0 0.0  
Since 1 September snowfall 0.0 0.0  
Snow Depth 0.00 in    
Sea Level Pressure  
Sea Level Pressure 29.96 in    
Wind  
Wind Speed 10 mph ()    
Max Wind Speed 29 mph    
Max Gust Speed 37 mph    
Visibility 6.0 miles    
Events Rain , Thunderstorm    
T = Trace of Precipitation, MM = Missing Value Source: Averaged Metar Reports

Daily Weather History Graph

Daily Weather History Graph

Search for Another Location

Airport or City:

Astronomy

Sep. 21, 2019 Rise Set
Actual Time 7:34 AM CDT 7:45 PM CDT
Civil Twilight 7:09 AM CDT 8:10 PM CDT
Nautical Twilight 6:40 AM CDT 8:39 PM CDT
Astronomical Twilight 6:11 AM CDT 9:08 PM CDT
Moon No Moon Rise 2:24 PM CDT (9/21)
Length of Visible Light 13h 00m
Length of Day
12h 11m
Waning Gibbous, 54% of the Moon is Illuminated
Sep 21
Waning Gibbous
Sep 21
Last Quarter
Sep 28
New
Oct 5
First Quarter
Oct 13
Full

Hourly Weather History & Observations

Time (CDT) Temp. Dew Point Humidity Pressure Visibility Wind Dir Wind Speed Gust Speed Precip Events Conditions
12:32 AM 69.8 °F 68.0 °F 94% 30.01 in 8.0 mi ESE 13.8 mph 21.9 mph N/A Rain , Thunderstorm Light Thunderstorms and Rain
12:53 AM 69.1 °F 66.9 °F 93% 29.83 in 6.0 mi ESE 20.7 mph - 0.04 in Rain , Thunderstorm Light Thunderstorms and Rain
1:28 AM 68.0 °F 66.9 °F 96% 30.03 in 9.0 mi North 6.9 mph - 0.10 in Thunderstorm Thunderstorm
1:42 AM 66.9 °F 66.0 °F 97% 30.00 in 2.0 mi NE 8.1 mph - 0.16 in Rain , Thunderstorm Heavy Thunderstorms and Rain
1:53 AM 64.0 °F 63.0 °F 96% 29.96 in 1.0 mi SW 19.6 mph 36.8 mph 0.52 in Rain , Thunderstorm Heavy Thunderstorms and Rain
1:55 AM 64.0 °F 62.1 °F 93% 30.07 in 0.8 mi SW 15.0 mph 36.8 mph 0.10 in Rain , Thunderstorm Heavy Thunderstorms and Rain
1:59 AM 64.0 °F 62.1 °F 93% 30.06 in 2.5 mi SSW 15.0 mph 34.5 mph 0.18 in Rain , Thunderstorm Heavy Thunderstorms and Rain
2:05 AM 64.0 °F 63.0 °F 96% 30.05 in 3.0 mi WSW 6.9 mph 20.7 mph 0.29 in Rain , Thunderstorm Heavy Thunderstorms and Rain
2:16 AM 64.9 °F 62.1 °F 90% 30.02 in 7.0 mi NW 5.8 mph 19.6 mph 0.42 in Rain , Thunderstorm Thunderstorms and Rain
2:53 AM 66.0 °F 63.0 °F 90% 29.90 in 10.0 mi East 6.9 mph - 0.46 in   Mostly Cloudy
3:53 AM 64.9 °F 63.0 °F 93% 29.90 in 10.0 mi ESE 9.2 mph - N/A   Scattered Clouds
4:53 AM 64.9 °F 64.0 °F 97% 29.88 in 10.0 mi ESE 10.4 mph - N/A   Scattered Clouds
5:53 AM 66.0 °F 64.9 °F 96% 29.89 in 8.0 mi SE 10.4 mph - N/A   Scattered Clouds
6:31 AM 66.9 °F 64.9 °F 93% 30.02 in 6.0 mi SE 9.2 mph - N/A   Scattered Clouds
6:51 AM 66.2 °F 64.4 °F 94% 30.03 in 5.0 mi SE 10.4 mph - N/A   Mostly Cloudy
6:53 AM 66.9 °F 64.9 °F 93% 29.90 in 5.0 mi SE 10.4 mph - N/A   Mostly Cloudy
7:22 AM 66.9 °F 66.0 °F 97% 30.03 in 5.0 mi SE 9.2 mph - N/A   Mostly Cloudy
7:53 AM 66.9 °F 66.0 °F 97% 29.91 in 5.0 mi SE 9.2 mph - N/A   Mostly Cloudy
8:53 AM 69.1 °F 68.0 °F 96% 29.92 in 5.0 mi SSE 12.7 mph - N/A   Overcast
9:53 AM 71.1 °F 69.1 °F 93% 29.91 in 6.0 mi SSE 16.1 mph - 0.00 in Rain Light Rain
10:53 AM 72.0 °F 69.1 °F 91% 29.94 in 9.0 mi SSW 12.7 mph - 0.00 in Rain Light Rain
11:53 AM 73.0 °F 69.1 °F 87% 29.95 in 10.0 mi South 16.1 mph - 0.00 in   Overcast
12:53 PM 73.0 °F 68.0 °F 84% 29.92 in 10.0 mi South 17.3 mph - N/A   Overcast
1:15 PM 73.0 °F 68.0 °F 84% 30.05 in 10.0 mi SSW 19.6 mph - N/A   Overcast
1:35 PM 75.0 °F 66.9 °F 76% 30.05 in 10.0 mi SSW 18.4 mph - N/A   Mostly Cloudy
1:53 PM 75.0 °F 66.0 °F 73% 29.92 in 10.0 mi SSW 18.4 mph - N/A   Overcast
2:53 PM 73.0 °F 64.0 °F 73% 29.90 in 10.0 mi South 13.8 mph - 0.00 in Rain Light Rain
3:53 PM 72.0 °F 69.1 °F 91% 29.88 in 6.0 mi South 10.4 mph - 0.01 in Rain Light Rain
4:53 PM 72.0 °F 69.1 °F 91% 29.87 in 7.0 mi SSE 8.1 mph - 0.01 in Rain Light Rain
5:53 PM 73.0 °F 68.0 °F 84% 29.86 in 7.0 mi ESE 4.6 mph - 0.00 in   Overcast
6:53 PM 71.1 °F 69.1 °F 93% 29.87 in 3.0 mi NE 3.5 mph - 0.09 in Rain Heavy Rain
7:23 PM 70.0 °F 68.0 °F 93% 30.01 in 4.0 mi SE 5.8 mph - 0.17 in Rain , Thunderstorm Light Thunderstorms and Rain
7:33 PM 70.0 °F 68.0 °F 93% 30.02 in 1.0 mi SSE 9.2 mph - 0.22 in Rain , Thunderstorm Heavy Thunderstorms and Rain
7:39 PM 68.0 °F 66.0 °F 93% 30.02 in 1.0 mi SSE 11.5 mph 19.6 mph 0.30 in Rain , Thunderstorm Heavy Thunderstorms and Rain
7:53 PM 66.9 °F 64.9 °F 93% 29.90 in 1.0 mi Calm Calm - 0.48 in Rain Rain
8:01 PM 66.9 °F 64.9 °F 93% 30.01 in 1.0 mi Calm Calm - 0.01 in Rain Light Rain
8:13 PM 66.9 °F 64.9 °F 93% 30.02 in 1.0 mi West 6.9 mph - 0.10 in Rain Heavy Rain
8:40 PM 68.0 °F 66.0 °F 93% 30.02 in 4.0 mi WNW 8.1 mph - 0.38 in Rain Rain
8:53 PM 68.0 °F 66.0 °F 93% 29.91 in 10.0 mi West 5.8 mph - 0.39 in Rain Light Rain
9:18 PM 68.0 °F 66.0 °F 93% 30.03 in 6.0 mi WNW 5.8 mph - 0.01 in Rain Heavy Rain
9:30 PM 66.9 °F 64.9 °F 93% 30.03 in 3.0 mi NW 3.5 mph - 0.06 in Rain Rain
9:36 PM 66.9 °F 64.9 °F 93% 30.04 in 5.0 mi WNW 3.5 mph - 0.08 in Rain Heavy Rain
9:49 PM 66.2 °F 64.4 °F 94% 30.03 in 4.0 mi NW 5.8 mph - 0.14 in Rain Heavy Rain
9:53 PM 66.9 °F 64.9 °F 93% 29.91 in 4.0 mi NNW 4.6 mph - 0.16 in Rain Heavy Rain
10:53 PM 66.9 °F 64.9 °F 93% 29.88 in 10.0 mi ESE 6.9 mph - 0.03 in   Mostly Cloudy
11:19 PM 66.9 °F 66.0 °F 97% 30.00 in 10.0 mi SE 9.2 mph - N/A   Mostly Cloudy
11:53 PM 68.0 °F 66.0 °F 93% 29.87 in 10.0 mi SSE 13.8 mph - N/A   Overcast